Powrót do katalogu

STARLINK-5166

AktywnyŁącznośćVLEO
NORAD 54085·PAYLOAD·🇺🇸 United States

Wystrzelony Oct 20, 2022 z Cape Canaveral Space Force Station

Loading…

Następne Przeloty (najbliższe 24 godziny)

TLE

ŚwieżeSource: CelesTrak SupGP

Epoka: Sep 14, 2026, 21:39 UTC

1 54085C 22136AL  26257.90256944  .00541300  00000+0  20129-1 0  2571
2 54085  53.1610 203.2933 0001265  94.8545 138.1859 15.26713365    16

Śledź STARLINK-5166 w czasie rzeczywistym z AllMySat

Download on the App Store